EW8735 Weather Reports


time (UTC)temp
F
wind
direction
speed
knots
gust
knots
rain 1hr
in
rain 24hr
in
rain mn
in
humidity
%
barometer
mb
20260510094558 49 49 0.0 0.0 0.00 0.00 0.00 75 1011.8
20260510093100 49 49 0.0 0.0 0.00 0.00 0.00 76 1011.8
20260510091556 49 49 0.0 0.0 0.00 0.00 0.00 77 1011.8
20260510090051 48 49 0.0 0.0 0.00 0.00 0.00 79 1012.1
20260510084549 49 48 0.0 0.0 0.00 0.00 0.00 78 1012.3
20260510083054 49 49 0.0 0.0 0.00 0.00 0.00 77 1012.4
20260510081547 50 49 0.0 0.0 0.00 0.00 0.00 75 1012.4
20260510080044 50 49 0.0 0.0 0.00 0.00 0.00 75 1012.4
20260510074543 50 48 0.0 0.0 0.00 0.00 0.00 74 1012.4
20260510073041 50 49 0.0 0.0 0.00 0.00 0.00 74 1012.5
20260510071551 51 49 0.0 0.0 0.00 0.00 0.00 74 1012.4
20260510070035 52 49 0.0 0.0 0.00 0.00 0.00 73 1012.4
20260510064534 51 50 0.0 0.0 0.00 0.00 0.00 74 1012.4
20260510063035 51 50 0.0 0.0 0.00 0.00 0.00 72 1012.4
20260510061544 52 49 0.0 0.0 0.00 0.00 0.00 69 1012.5
20260510060032 53 49 0.0 0.0 0.00 0.00 0.00 66 1012.5
20260510054532 54 49 0.0 0.0 0.00 0.00 0.00 66 1012.6
20260510053030 54 49 0.0 0.0 0.00 0.00 0.00 66 1012.9
20260510051528 55 49 0.0 0.0 0.00 0.00 0.00 65 1013.0
20260510050026 58 49 0.0 0.0 0.00 0.00 0.00 60 1013.1
20260510044526 58 49 0.0 0.0 0.00 0.00 0.00 58 1013.1
20260510043025 59 49 0.0 0.0 0.00 0.00 0.00 57 1013.2
20260510041524 60 49 0.0 0.0 0.00 0.00 0.00 57 1013.2
20260510040024 60 49 0.0 0.0 0.00 0.00 0.00 59 1013.3
20260510034523 61 49 0.0 0.0 0.00 0.00 0.00 57 1013.3
20260510033022 63 48 0.0 0.0 0.00 0.00 0.00 50 1013.2
20260510031537 65 49 0.0 0.0 0.00 0.00 0.00 49 1013.2
20260510030024 65 49 0.0 0.0 0.00 0.00 0.00 48 1013.1
20260510024533 67 49 0.0 0.0 0.00 0.00 0.00 47 1013.1
20260510023018 68 49 0.0 0.0 0.00 0.00 0.00 47 1013.1
20260510021521 70 49 0.0 0.0 0.00 0.00 0.00 44 1013.3
20260510020015 70 49 0.0 0.0 0.00 0.00 0.00 43 1013.3
20260510014513 71 49 0.0 0.0 0.00 0.00 0.00 42 1013.5
20260510013012 72 49 0.0 0.0 0.00 0.00 0.00 39 1013.5
20260510011510 72 49 0.0 0.0 0.00 0.00 0.00 39 1013.7
20260510010008 73 48 0.0 0.0 0.00 0.00 0.00 39 1013.8
20260510004507 74 49 0.0 0.0 0.00 0.00 0.00 36 1013.8
20260510003018 76 49 0.0 0.0 0.00 0.00 0.00 31 1013.9
20260510001504 75 48 0.0 0.0 0.00 0.00 0.00 30 1014.0
20260510000002 75 48 0.0 0.0 0.00 0.00 0.00 30 1014.1
20260509234503 76 48 0.0 0.0 0.00 0.00 0.00 30 1014.2
20260509233059 76 45 0.0 0.0 0.00 0.00 0.00 31 1014.3
20260509231557 75 39 0.0 0.0 0.00 0.00 0.00 33 1014.5
20260509230100 75 41 0.0 0.0 0.00 0.00 0.00 31 1014.6
20260509224551 75 76 0.0 0.0 0.00 0.00 0.00 35 1014.8
20260509223049 75 41 0.0 0.0 0.00 0.00 0.00 33 1014.9
20260509221549 75 41 0.0 0.0 0.00 0.00 0.00 34 1014.9
20260509220048 74 12 0.0 0.0 0.00 0.00 0.00 32 1015.1
20260509214546 75 12 0.0 0.0 0.00 0.00 0.00 35 1015.2
20260509213044 75 4 0.0 0.0 0.00 0.00 0.00 36 1015.4
20260509211540 74 4 0.0 0.0 0.00 0.00 0.00 35 1015.5
20260509210044 73 116 0.0 0.0 0.00 0.00 0.00 35 1015.7
20260509204535 73 100 0.0 0.0 0.00 0.00 0.00 35 1015.9
20260509203037 72 26 0.0 0.0 0.00 0.00 0.00 39 1016.0
20260509201533 72 26 0.0 0.0 0.00 0.00 0.00 39 1016.1
20260509200028 71 26 0.0 0.0 0.00 0.00 0.00 41 1016.3
20260509194532 69 26 0.0 0.0 0.00 0.00 0.00 40 1016.4
20260509193023 69 337 0.0 0.0 0.00 0.00 0.00 45 1016.7
20260509191522 68 337 0.0 0.0 0.00 0.00 0.00 43 1017.0
20260509190021 68 338 0.0 0.0 0.00 0.00 0.00 45 1017.2
20260509184519 68 341 0.0 0.0 0.00 0.00 0.00 44 1017.4
20260509183024 69 341 0.0 0.0 0.00 0.00 0.00 45 1017.5
20260509181515 67 359 0.0 0.0 0.00 0.00 0.00 45 1017.6
20260509180014 67 341 0.0 0.0 0.00 0.00 0.00 46 1017.8
20260509174511 66 341 0.0 0.0 0.00 0.00 0.00 47 1017.9
20260509173008 65 339 0.0 0.0 0.00 0.00 0.00 49 1017.9
20260509171507 65 359 0.0 0.0 0.00 0.00 0.00 48 1017.8
20260509170003 63 339 0.0 0.0 0.00 0.00 0.00 49 1018.1
20260509164604 63 359 0.0 0.0 0.00 0.00 0.00 51 1018.2
20260509163101 62 359 0.0 0.0 0.00 0.00 0.00 52 1018.3
20260509161554 61 359 0.0 0.0 0.00 0.00 0.00 54 1018.4
20260509160056 60 359 0.0 0.0 0.00 0.00 0.00 56 1018.3
20260509154554 59 359 0.0 0.0 0.00 0.00 0.00 57 1018.4
20260509153046 58 359 0.0 0.0 0.00 0.00 0.00 59 1018.3
20260509151545 57 318 0.0 0.0 0.00 0.00 0.00 59 1018.3
20260509150043 57 337 0.0 0.0 0.00 0.00 0.00 64 1018.3
20260509144542 57 213 0.0 0.0 0.00 0.00 0.00 63 1018.3
20260509143038 56 218 0.0 0.0 0.00 0.00 0.00 71 1018.2
20260509141536 52 218 0.0 0.0 0.00 0.00 0.00 78 1018.2
20260509140036 50 217 0.0 0.0 0.00 0.00 0.00 78 1018.3
20260509134534 49 218 0.0 0.0 0.00 0.00 0.00 80 1018.2
20260509133033 47 189 0.0 0.0 0.00 0.00 0.00 79 1018.3
20260509131532 47 187 0.0 0.0 0.00 0.00 0.00 79 1018.2
20260509130031 45 212 0.0 0.0 0.00 0.00 0.00 81 1018.1
20260509124529 45 212 0.0 0.0 0.00 0.00 0.00 81 1017.9
20260509123029 45 213 0.0 0.0 0.00 0.00 0.00 80 1017.9
20260509121530 45 213 0.0 0.0 0.00 0.00 0.00 81 1018.0
20260509120027 45 213 0.0 0.0 0.00 0.00 0.00 82 1017.8
20260509114524 45 212 0.0 0.0 0.00 0.00 0.00 80 1017.7
20260509113023 46 213 0.0 0.0 0.00 0.00 0.00 79 1018.0
20260509111521 46 212 0.0 0.0 0.00 0.00 0.00 79 1017.9
20260509110020 46 212 0.0 0.0 0.00 0.00 0.00 78 1017.9
20260509104532 47 212 0.0 0.0 0.00 0.00 0.00 76 1018.0
20260509103016 47 212 0.0 0.0 0.00 0.00 0.00 77 1017.7
20260509101515 47 213 0.0 0.0 0.00 0.00 0.00 75 1017.7
20260509100011 49 212 0.0 0.0 0.00 0.00 0.00 73 1017.9